Date,TemperatureHighF,TemperatureAvgF,TemperatureLowF,DewpointHighF,DewpointAvgF,DewpointLowF,HumidityHigh,HumidityAvg,HumidityLow,PressureMaxIn,PressureMinIn,WindSpeedMaxMPH,WindSpeedAvgMPH,GustSpeedMaxMPH,PrecipitationSumIn
2013-3-1,32.0,31.0,30.0,55.0,54.6,54.0,0,0,100,29.63,29.51,15,7,15,0.00
2013-3-2,36.0,32.7,30.0,55.9,54.3,54.0,0,0,100,29.61,29.57,13,4,13,0.00
2013-3-3,43.2,36.0,33.1,55.9,54.8,54.0,0,0,100,29.58,29.46,9,3,9,0.00
2013-3-4,34.5,32.3,30.6,55.9,54.7,54.0,0,0,100,29.65,29.42,14,6,14,0.00
2013-3-5,42.1,35.5,32.7,55.9,54.9,54.0,0,0,100,30.14,29.65,13,7,13,0.00
2013-3-6,40.5,34.0,31.5,55.9,55.1,54.0,0,0,100,30.30,30.14,14,6,14,0.00
2013-3-7,38.1,33.2,30.7,55.9,54.8,54.0,0,0,100,30.26,30.11,16,7,16,0.00
2013-3-8,45.5,35.6,29.3,55.9,54.9,54.0,0,0,100,30.22,30.07,20,5,20,0.00
2013-3-9,42.1,33.7,27.9,55.9,54.6,54.0,0,0,100,30.39,30.19,17,5,17,0.00
2013-3-10,38.8,31.3,25.7,55.0,54.1,53.1,0,0,100,30.43,30.30,9,1,9,0.00
2013-3-11,42.4,37.6,32.5,55.9,54.6,54.0,0,0,100,30.33,30.17,13,6,13,0.00
2013-3-12,50.2,43.3,38.8,55.9,55.2,55.0,0,0,100,30.18,29.81,13,6,13,0.00
2013-3-13,48.2,41.2,32.5,57.0,55.3,54.0,0,0,100,29.81,29.64,15,4,15,0.00
2013-3-14,42.1,33.5,23.5,55.9,54.8,53.1,0,0,100,29.68,29.59,18,4,18,0.00
2013-3-15,34.2,25.6,16.9,55.0,53.7,52.0,0,0,100,29.75,29.59,16,6,18,0.00
2013-3-16,36.0,28.4,21.7,55.0,53.7,53.1,0,0,100,29.88,29.60,12,5,12,0.00
2013-3-17,33.6,22.9,15.4,54.0,53.2,52.0,0,0,100,30.28,29.88,20,4,20,0.00
2013-3-18,34.5,23.4,10.6,54.0,52.6,51.1,0,0,100,30.42,30.28,11,1,11,0.00
2013-3-19,27.0,24.4,21.7,54.0,53.3,53.1,0,0,100,30.30,29.66,12,4,12,0.00
2013-3-20,36.1,26.4,17.1,54.0,53.2,52.0,0,0,100,29.68,29.55,20,6,20,0.00
2013-3-21,42.6,31.0,21.6,55.0,53.6,52.0,0,0,100,29.76,29.60,9,2,9,0.00
2013-3-22,43.2,30.7,22.3,54.0,53.3,52.0,0,0,100,29.60,29.54,15,4,15,0.00
2013-3-23,45.7,32.7,23.4,54.0,53.4,53.1,0,0,100,29.59,29.40,16,7,16,0.00
2013-3-24,48.4,37.4,31.5,55.9,54.1,53.1,0,0,100,29.76,29.56,14,6,14,0.00
2013-3-25,51.1,37.7,29.7,55.9,54.4,53.1,0,0,100,29.76,29.59,12,4,12,0.00
2013-3-26,49.5,38.4,29.5,55.0,54.6,54.0,0,0,100,29.68,29.53,15,8,15,0.00
2013-3-27,40.8,36.6,34.5,55.9,54.3,53.1,0,0,100,29.85,29.66,13,6,13,0.00
2013-3-28,48.9,39.8,33.6,55.9,54.9,54.0,0,0,100,29.94,29.85,10,3,10,0.00
2013-3-29,56.5,44.9,37.6,55.9,55.4,54.0,0,0,100,29.98,29.91,10,3,10,0.00
2013-3-30,54.9,42.9,31.3,57.0,55.4,54.0,0,0,100,30.07,29.96,11,3,11,0.00
2013-3-31,54.3,40.3,27.0,55.9,54.8,54.0,0,0,100,30.12,29.89,11,3,11,0.00